Kezdőlap
METAR-TAF:

METAR-TAF

Repülőterek :

Nebraska City Municipal Airport

Nebraska City, Nebraska, Amerikai Egyesült Államok

földrajzi szélesség: 40-36N, földrajzi hosszúság: 095-51W, magasság: 354 m

Jelenlegi meteorológiai megfigyelések

A jelentés 20 perccel ezelõtt készült, 10:55 UTC
Déli szél 8 kt
Hőmérséklet 16°C
Páratartalom 72%
Légköri nyomás 1013 hPa
Látótávolság: 16.1 km
Derült ég

METAR: KAFK 171055Z AUTO 18008KT 10SM CLR 16/11 A2992 RMK AO2 T01620110

Idő: 06:15 (11:15 UTC)


TAF: hiányzik

Meteorológiai megfigyelések és előrejelzések több, mint 4000 repülőtéren (METAR és TAF jelentéseket).

A térképen piros és sárga pontok jelzik az elérhető meteorológiai állomásokat.

Mozgassa az egeret a pont fölött, hogy megjelenjen az állomás neve.

Azután kattintson az időjárási megfigyelések és előrejelzések megtekintéséhez.

A térkép megváltoztatása: kattintson a fekete keresztel jelölt zöld gombra ráközelítéshez, a vonallal jelölt zöld gombra távolításhoz, vagy a zöld nyilakra a szomszédos térképek eléréséhez.


METAR-TAF: